Flag for Germany Weather past 2 weeks in Arnsberg, North Rhine-Westphalia, Germany

Now
64 °F

Scattered clouds.


Feels Like: 64 °F
Forecast: 56 / 69 °F
Wind: 12 mph from Southwest

Location: Dortmund / Wickede

Current Time: Aug 29, 2014 at 12:00:13 PM

Latest Report: Aug 29, 2014 at 11:20 AM


Visibility: N/A

Pressure: 30.01 "Hg

Humidity: 78%

Dew point: 57 °F

Location of ArnsbergLocation

Historic Weather in Arnsberg — Graph

°F

Arnsberg temperature yesterday

Maximum temperature yesterday: 73 °F (at 3:20 PM)
Minimum temperature yesterday: 54 °F (at 5:20 AM)
Average temperature yesterday: 65 °F

Past Weeks' High & Low Weather Summary

 TemperatureHumidityPressure
High73 °F (Aug 28, 3:20 PM)100% (Aug 27, 6:20 AM)30.09 "Hg (Aug 27, 6:20 AM)
Low45 °F (Aug 27, 5:20 AM)43% (Aug 20, 2:50 PM)29.65 "Hg (Aug 26, 5:20 AM)
Average58 °F74%29.92 "Hg
* Reported Aug 14 10:20 AM — Aug 29 10:50 AM, Arnsberg, Weather by CustomWeather, © 2014

Note: Actual official high and low records may vary slightly from our data, if they occured in-between our weather recording intervals... More about our weather records

Advertising

Arnsberg weather history for previous 24 hours

 ConditionsComfort  
Time TempWeatherWind HumidityBarometerVisibility
10:50 AM
Aug 29
64 °FScattered clouds.12 mph78%29.98 "HgN/A
10:20 AM63 °FScattered clouds.10 mph77%29.98 "HgN/A
9:50 AM63 °FScattered clouds.9 mph83%29.98 "HgN/A
9:20 AM63 °FScattered clouds.12 mph77%29.98 "HgN/A
8:50 AM61 °FPassing clouds.9 mph83%29.98 "HgN/A
8:20 AM61 °FScattered clouds.7 mph83%29.98 "HgN/A
7:50 AM59 °FSunny.7 mph88%29.98 "Hg10 mi
7:20 AM59 °FClear.7 mph88%29.98 "Hg10 mi
6:50 AM59 °FPassing clouds.8 mph88%29.98 "HgN/A
6:20 AM59 °FPassing clouds.7 mph94%29.98 "HgN/A
5:50 AM61 °FPassing clouds.7 mph88%29.98 "HgN/A
5:20 AM61 °FLight rain. Partly cloudy.8 mph88%29.98 "HgN/A
10:50 PM
Aug 28
61 °FClear.6 mph83%29.95 "Hg10 mi
10:20 PM63 °FClear.10 mph77%29.95 "Hg10 mi
9:50 PM64 °FClear.9 mph73%29.95 "Hg10 mi
9:20 PM64 °FSunny.10 mph73%29.95 "Hg10 mi
8:50 PM66 °FPassing clouds.7 mph68%29.95 "HgN/A
8:20 PM66 °FSunny.8 mph68%29.95 "Hg10 mi
7:50 PM66 °FSunny.12 mph68%29.95 "Hg10 mi
7:20 PM68 °FPassing clouds.6 mph69%29.95 "HgN/A
6:50 PM68 °FSunny.5 mph69%29.95 "Hg10 mi
6:20 PM68 °FBroken clouds.13 mph64%29.95 "HgN/A
5:20 PM72 °FBroken clouds.8 mph61%29.95 "HgN/A
4:50 PM72 °FPartly sunny.10 mph57%29.95 "HgN/A
4:20 PM72 °FScattered clouds.9 mph57%29.95 "HgN/A
3:50 PM72 °FPassing clouds.10 mph57%29.98 "HgN/A
3:20 PM73 °FPassing clouds.10 mph50%29.98 "HgN/A
2:50 PM72 °FScattered clouds.12 mph53%29.98 "HgN/A
2:20 PM72 °FPassing clouds.10 mph53%29.98 "HgN/A
1:50 PM72 °FScattered clouds.12 mph50%29.98 "HgN/A
1:20 PM72 °FScattered clouds.8 mph57%29.98 "HgN/A
12:50 PM72 °FSunny.12 mph53%29.98 "Hg10 mi
12:20 PM70 °FSunny.8 mph60%30.01 "Hg10 mi
Weather by CustomWeather, © 2014

See weather overviewHow to use our weather pages